Simultaneous Nadir Overpasses (SNOs) Predictions

Prediction of SNOs between GOES-16 and METOP-B Satellite Orbit:

Table of predicted SNOs for the next 14.0 days since TLE Epoch: 10/17/2020
Index Date Time (GOES-16) GOES-16 Lat,Lon METOP-B Lat,Lon Distance(km) Time Diff (sec)
1 10/18/2020 02:15:00 0.04, -75.17 0.97, -71.06 469.64 80
2 10/19/2020 14:33:53 -0.03, -75.19 0.06, -75.61 48.22 80
3 10/22/2020 02:32:14 0.02, -75.17 0.01, -75.21 4.72 80
4 10/24/2020 14:27:48 -0.02, -75.20 -0.12, -74.78 47.87 80
5 10/26/2020 02:49:28 0.01, -75.19 -0.94, -79.37 476.43 80
6 10/27/2020 02:26:10 0.01, -75.20 0.20, -74.38 93.78 80
7 10/28/2020 14:47:42 -0.01, -75.24 0.83, -78.94 421.92 80
8 10/29/2020 14:24:24 -0.01, -75.26 -0.31, -73.95 148.73 80
9 10/31/2020 02:46:04 0.01, -75.26 -0.74, -78.54 374.17 80
